Location: Millers Ferry
(32.0990°N, 87.3680°W)
Time: 19:07:48
(UTC-05:00)

CSL-04 Rocket - Visible Passes

Search period start: 20 April 2014 00:00
Search period end: 30 April 2014 00:00
Orbit: 806 x 861 km, 98.9° (Epoch: 20 April)

Date Brightness Start Highest point End Pass type
(mag) Time Alt. Az. Time Alt. Az. Time Alt. Az.
20 Apr 5.6 04:09:24 10° NE 04:13:38 24° E 04:17:52 10° SSE visible
21 Apr 6.1 03:53:34 10° ENE 03:56:48 16° E 04:00:01 10° SE visible
21 Apr 3.9 05:32:16 10° N 05:37:18 47° WNW 05:42:19 10° SW visible
22 Apr 6.5 03:39:09 10° E 03:39:55 10° E 03:40:40 10° E visible
22 Apr 3.6 05:15:23 10° N 05:20:38 70° WNW 05:25:52 10° SSW visible
23 Apr 3.7 04:58:38 10° NNE 05:03:56 80° ESE 05:09:12 10° S visible
24 Apr 4.3 04:42:02 10° NNE 04:47:11 53° E 04:52:20 10° S visible
25 Apr 5.0 04:25:35 10° NNE 04:30:24 36° E 04:35:13 10° SSE visible
26 Apr 5.6 04:09:22 10° NE 04:13:36 24° E 04:17:49 10° SSE visible
27 Apr 6.2 03:53:32 10° ENE 03:56:45 16° E 03:59:58 10° SE visible
27 Apr 3.9 05:32:13 10° N 05:37:15 47° WNW 05:42:18 10° SW visible
28 Apr 6.5 03:39:11 10° E 03:39:52 10° E 03:40:33 10° E visible
28 Apr 3.6 05:15:20 10° N 05:20:35 71° WNW 05:25:51 10° SSW visible
29 Apr 3.7 04:58:35 10° NNE 05:03:52 79° ESE 05:09:11 10° S visible
